Tracking 25709 objects as of 24-May-2022
HD Live streaming from Space Station
objects crossing your sky now

CZ-2C R/B

Track CZ-2C R/B now!
10-day predictions


NORAD ID: 28480
Int'l Code: 2004-046B
Perigee: 711.9 km
Apogee: 913.8 km
Inclination: 98.1 °
Period: 101.0 minutes
Semi major axis: 7183 km
RCS: 10.5659 m2 (large)
Launch date: November 18, 2004
Source: People's Republic of China (PRC)
Launch site: Xichang Space Center, China (XSC)

Note: This is a ROCKET BODY
aabbcc
Your satellite tracking list
Your tracking list is empty




NASA's NSSDC Master Catalog

Two Line Element Set (TLE):
1 28480U 04046B   22143.90998763  .00000193  00000-0  88909-4 0  9990
2 28480  98.0634 133.6031 0140553 295.2204  63.4463 14.25826918910948
Source of the keplerian elements: AFSPC